Location: ???????
(55.9142°N, 37.8256°E)
Time: 09:02:57
(UTC+00:00)

SAR-Lupe-4 - Visible Passes

Search period start: 24 July 2024 00:00
Search period end: 03 August 2024 00:00
Orbit: 476 x 482 km, 98.1° (Epoch: 02 April)

Date Brightness Start Highest point End Pass type
(mag) Time Alt. Az. Time Alt. Az. Time Alt. Az.
26 Jul 5.2 00:18:29 10° NNE 00:21:42 31° E 00:24:54 10° SSE visible
26 Jul 6.1 23:52:22 10° NE 23:54:51 18° E 23:57:18 10° SE visible
29 Jul 4.7 00:31:37 10° NNE 00:35:02 40° E 00:38:24 10° S visible
30 Jul 5.7 00:05:19 10° NE 00:08:12 22° E 00:11:04 10° SSE visible
30 Jul 6.3 23:39:34 10° ENE 23:41:16 13° E 23:42:58 10° ESE visible
01 Aug 4.2 00:44:46 10° NNE 00:48:17 54° ESE 00:51:47 10° S visible
02 Aug 5.3 00:18:20 10° NE 00:21:29 29° E 00:24:37 10° SSE visible
02 Aug 6.2 23:52:14 10° NE 23:54:35 17° E 23:56:56 10° SE visible
